loading
|

STARLINK-32150, 60294

Orbit data source: Space-Track

STARLINK-32150, 60294 is a payload satellite owned by SpaceX/Seattle (US) in LEO that was launched on Sun, 28 Jul 2024 UTC via an FALCON 9 launch vehicle from the Air Force Eastern Test Range (AFETR). Payloads include a variety of satellites, spacecraft, and rockets equipped with specific instruments for various scientific and technological missions. These include communications satellites like Starlink; space stations such as the ISS; scientific satellites like the Hubble; Earth observation satellites from companies like Planet Labs, Umbra, and HawkEye 360; GPS; miniature CubeSats for education and research; and military/defense satellites.

Loading next visibility...
Loading greatness...
STARLINK-32150 details
Identifier
60294, 2024-132S
Orbit
LEO
Last TLE update6 hours ago
Origin
Flag of USSpaceX/Seattle (US)
ManufacturerSpaceX/Seattle
Mission statusOperational
MissionUnknown
Bus & MotorSTARLINK V2M, Unknown motor
Mass750 kg wet, ~700 kg dry
Launch date (UTC)
2024-07-28 (2 months ago)
Launch vehicle
FALCON 9
Launch site
Air Force Eastern Test Range (AFETR)
Object type
Payload
Rocket body
Debris
Radar Cross SectionLarge (>1 m²)

Expand to show TLE details & history

TLE from 6 hours ago
0 STARLINK-32150
1 60294U 24132S   24261.64014478  .00001114  00000-0  37856-4 0  9992
2 60294  53.1607  32.2595 0003010 119.6836 240.4468 15.39624085  9177
Epoch: 2024-09-17T15:21Z
Definitive object data (Epoch: 2024-09-17T15:21:48.508Z)
Latitude-0.00011°
Longitude164.7554°
Altitude449.137 km
Speed7.643 km/s
True Right ascension02h 09m 02s
True Declination0° 00' 00"
Sunlit
Object was in full shadow at TLE epoch
Predictive object data (real-time)
Latitude-41.30226°
Longitude122.69194°
Altitude462.971 km
Speed7.634 km/s
Apparent Right ascension00h 43m 14s
Apparent Declination-42° 25' 58"
Sunlit
Object is in full shadow
Predictive observer data (real-time)
Local Sidereal Time14:10:03
Azimuth105.848° ESE
Elevation-73.515°
Doppler factor1
Orbital elements
Apogee449.532 km
Perigee445.423 km
Semi-major axis6,825.614 km
Eccentricity0.000301
Inclination53.1607°
RAAN32.2595°
Arg. of periapsis119.6836°
True anomaly240.4168°
Mean anomaly240.4468°
Eccentric anomaly240.4318°
Mean motion3.84885 °/min
BSTAR0.000037856
Period93.53 mins
No data available

STARLINK-32150 Visibility forecast

Observer location: 39.9160978°, -105.1181434

STARLINK-32150 is not visible in the next 10 days
Span
Click to sort rows by Start time (UTC) header in descending order
Start Az.
Max El. time (UTC)
Max El. Az.
Max El.
End time (UTC)
End Az.